Location: Berkeley
(37.8716°N, 122.2727°W)
Time: 23:10:15
(UTC-07:00)

CAS-4A - Visible Passes

Search period start: 20 April 2019 00:00
Search period end: 30 April 2019 00:00
Orbit: 529 x 545 km, 43.0° (Epoch: 20 April)

Date Brightness Start Highest point End Pass type
(mag) Time Alt. Az. Time Alt. Az. Time Alt. Az.
20 Apr ? 04:28:19 64° NW 04:28:41 68° NNW 04:32:50 10° ENE visible
21 Apr ? 04:18:30 58° NNW 04:18:38 59° NNW 04:22:44 10° ENE visible
21 Apr ? 05:55:20 10° WNW 05:59:15 39° N 06:03:10 10° ENE visible
22 Apr ? 04:08:39 52° N 04:08:39 52° N 04:12:40 10° ENE visible
22 Apr ? 05:45:19 10° WNW 05:49:15 40° N 05:53:10 10° ENE visible
23 Apr ? 03:58:49 46° N 03:58:49 46° N 04:02:35 10° ENE visible
23 Apr ? 05:35:16 10° WNW 05:39:14 42° N 05:43:12 10° E visible
24 Apr ? 03:48:59 41° N 03:48:59 41° N 03:52:32 10° ENE visible
24 Apr ? 05:25:13 10° WNW 05:29:13 45° N 05:33:13 10° E visible
25 Apr ? 03:39:13 38° NNE 03:39:13 38° NNE 03:42:30 10° ENE visible
25 Apr ? 05:15:09 10° WNW 05:19:12 49° NNE 05:23:14 10° E visible
26 Apr ? 03:29:28 34° NNE 03:29:28 34° NNE 03:32:28 10° ENE visible
26 Apr ? 05:05:05 10° WNW 05:09:10 55° NNE 05:13:15 10° E visible
27 Apr ? 03:19:49 30° NE 03:19:49 30° NE 03:22:27 10° ENE visible
27 Apr ? 04:55:11 11° WNW 04:59:07 64° NNE 05:03:14 10° E visible
28 Apr ? 03:10:19 26° NE 03:10:19 26° NE 03:12:27 10° ENE visible
28 Apr ? 04:45:41 15° WNW 04:49:03 75° NNE 04:53:12 10° ESE visible
29 Apr ? 03:01:00 20° ENE 03:01:00 20° ENE 03:02:27 10° ENE visible
29 Apr ? 04:36:23 22° WNW 04:38:59 88° NNE 04:43:08 10° ESE visible
